{"data":{"norad_id":61525,"intl_designator":"2024-183S","name":"STARLINK-32298","alt_names":[],"object_type":"PAYLOAD","status":"ACTIVE","operator":null,"country":"US","launch_date":"2024-10-15","launch_site_code":"AFETR","launch_vehicle":null,"mission":null,"orbit_class":"UNKNOWN","rcs_meters":null,"size_class":null,"mass_kg":null,"dimensions":null,"purposes":["comms"],"wikipedia_slug":null,"has_3d_model":false,"image_url":null,"decayed_at":null,"tle_current":{"epoch":"2026-09-21T10:24:16.039872Z","epoch_age_seconds":111514,"freshness":"FRESH","line1":"1 61525U 24183S   26264.43351898  .00000757  00000+0  36151-4 0  9996","line2":"2 61525  53.1627 311.6741 0001224  99.3696 260.7444 15.31699206109648","mean_motion":15.31699206,"eccentricity":0.0001224,"inclination_deg":53.1627,"raan_deg":311.6741,"arg_perigee_deg":99.3696,"mean_anomaly_deg":260.7444,"bstar":3.6151e-5,"rev_number":10964,"period_min":94.013236695508,"perigee_km":469.90405926543,"apogee_km":471.58066493327,"semimajor_km":6848.8793620994,"source":"CELESTRAK","updated_at":"2026-09-22T09:00:49.358467Z"}}}